Regional Weather Roundup
Issued by NWS Midland/Odessa, TX

Skip options and go directly to product.
Home | Oldest Version | Next Version | Current Version | All | Text Only | Save Text | Print | Product List | Glossary On

Skip product version selection by date and time.   
591
ASUS44 KMAF 251501
RWRMAF
MIDLAND AREA WEATHER ROUNDUP
NATIONAL WEATHER SERVICE MIDLAND TX
1000 AM CDT TUE APR 25 2017

...IN SOUTHWEST TEXAS AND SOUTHEAST NEW MEXICO...

CITY           SKY/WX    TMP DP  RH WIND       PRES   REMARKS
ALPINE         CLOUDY    71  18  13 SW10      29.81S
ANDREWS        FAIR      76  32  19 W22G31    29.60S
ARTESIA        CLOUDY    75  23  14 SW26G36   29.58R
BIG SPRING     SUNNY     75  47  37 SW12G17   29.61S
CARLSBAD       CLOUDY    74  30  19 W23G31    29.60S
DRYDEN           N/A     70  52  52 SW6       29.64S
FORT STOCKTON  SUNNY     83  24  11 SW20      29.64F
GUAD PASS      CLOUDY    64  31  28 W51G66    29.66F
HOBBS          SUNNY     73  23  15 SW14G25   29.61F
MARFA            N/A     72  19  13 SW14      29.81R
MIDLAND AIRPK  SUNNY     79  37  22 SW14G23   29.61S
MIDLAND INTL   SUNNY     78  39  24 SW15      29.60F
ODESSA         SUNNY     78  38  23 W12       29.62S
PECOS          CLOUDY    77  32  19 SW6       29.62S
PRESIDIO       FAIR      75  23  14 E5        29.74S
SEMINOLE       CLOUDY    73  30  20 SW16      29.60S
SNYDER         MOSUNNY  N/A N/A N/A SW10      29.56F
WINK           CLOUDY    79  25  13 SW10      29.61S
$$
...OTHER STATIONS IN TEXAS...

CITY           SKY/WX    TMP DP  RH WIND       PRES   REMARKS
ABILENE        CLOUDY    73  56  54 SW20G28   29.54F
AMARILLO       CLOUDY    67  30  25 W13       29.51R
AUSTIN         CLOUDY    71  65  81 S14       29.65S
BROWNSVILLE    CLOUDY    82  71  69 S22G29    29.69S
CORPUS CHRISTI CLOUDY    78  70  76 S24G36    29.65F
DALLAS FTW     MOSUNNY   73  61  65 S20       29.53F
DEL RIO        SUNNY     68  60  75 SE10      29.63R
EL PASO        MOSUNNY   72  20  14 SW35G43   29.71S
HOUSTON INT    PTSUNNY   76  64  66 S12G22    29.70S
LUBBOCK        PTSUNNY   77  30  17 W17G23    29.54S
SAN ANGELO     CLOUDY    74  54  49 SW15      29.59F
SAN ANTONIO    CLOUDY    70  64  81 S9        29.67S
WACO           CLOUDY    68  64  87 S15       29.63S
WICHITA FALLS  NOT AVBL
$$
...OTHER LOCATIONS IN NEW MEXICO...

CITY           SKY/WX    TMP DP  RH WIND       PRES   REMARKS
ALAMOGORDO     PTSUNNY   68  19  15 W12       29.73S
ALBUQUERQUE    LGT RAIN  48  43  82 W9        29.76R
CANNON AFB     PTSUNNY   69  25  19 W24G32    29.56F
CLOVIS         MOSUNNY   68  27  21 W23G30    29.57S
HOLLOMAN AFB   PTSUNNY   71  23  16 W9        29.75R
ROSWELL        CLOUDY    71  28  20 W8        29.58R
RUIDOSO        SUNNY     59  16  18 W30G36    29.71S
SANTA FE       LGT RAIN  43  42  97 SW12      29.73R WCI  37
TRUTH OR CONSE PTSUNNY   68  19  15 W12G23    29.70F
TUCUMCARI      MOSUNNY   70  31  23 W26G35    29.51S
$$

  • National Weather Service
  • Southern Region Headquarters
  • 819 Taylor Street, Room 10A06
  • Fort Worth, TX 76102
  • Page Author: NWS Fort Worth
  • Web Master: SR-SRH.Webmaster@noaa.gov
  •  
  • Page last modified: 30-Sep-2016 6:36 PM UTC
USA.gov is the U.S. government's official web portal to all federal, state and local government web resources and services.